Weather History for Richmond (NSW), NW

Change the Weather History Date:

Friday, January 18, 2013

  Actual Average (YSSY) Record (YSSY)
Temperature  
Mean Temperature 91 °F -  
Max Temperature 114 °F 84 °F 114 °F (2013)
Min Temperature 68 °F 64 °F 59 °F (2009)
Cooling Degree Days 26    
Growing Degree Days 41 (Base 50)    
Moisture  
Dew Point 62 °F    
Average Humidity 52    
Maximum Humidity 100    
Minimum Humidity 14    
Precipitation  
Precipitation 0.00 in 0.13 in - ()
Sea Level Pressure  
Sea Level Pressure 29.59 in    
Wind  
Wind Speed 6 mph ()    
Max Wind Speed 29 mph    
Max Gust Speed 40 mph    
Visibility 6.0 miles    
Events Rain    
Averages and records for this station are not official NWS values.
T = Trace of Precipitation, MM = Missing Value Source: Averaged Metar Reports

Daily Weather History Graph

Daily Weather History Graph

Search for Another Location

Airport:

Trip Planner

Search our weather history database for the weather conditions in past years. The results will help you decide how hot, cold, wet, or windy it might be!

Date:

Astronomy

Jan. 18, 2013 Rise Set
Actual Time 6:04 AM AEDT 8:09 PM AEDT
Civil Twilight 5:36 AM AEDT 8:37 PM AEDT
Nautical Twilight 5:02 AM AEDT 9:11 PM AEDT
Astronomical Twilight 4:26 AM AEDT 9:47 PM AEDT
Moon 12:33 PM AEDT (1/18) 11:56 PM AEDT (1/18)
Length of Visible Light 15h 00m
Length of Day
14h 04m
Waxing Crescent, 41% of the Moon is Illuminated
Jan 18
Waxing Crescent
Jan 19
First Quarter
Jan 27
Full
Feb 4
Last Quarter
Feb 10
New

Hourly Weather History & Observations

Time (AEDT) Temp. Heat Index Dew Point Humidity Pressure Visibility Wind Dir Wind Speed Gust Speed Precip Events Conditions
12:00 AM 75.2 °F - 68.0 °F 78% 29.71 in 6.2 mi SSW 4.6 mph - N/A   Unknown
12:30 AM 75.2 °F - 68.0 °F 78% 29.71 in 6.2 mi Calm Calm - N/A   Unknown
1:00 AM 75.2 °F - 68.0 °F 78% 29.71 in 6.2 mi Calm Calm - N/A   Unknown
1:30 AM 75.2 °F - 66.2 °F 73% 29.68 in 6.2 mi Calm Calm - N/A   Unknown
2:00 AM 73.4 °F - 66.2 °F 78% 29.68 in 6.2 mi Calm Calm - N/A   Unknown
2:30 AM 71.6 °F - 66.2 °F 83% 29.65 in 6.2 mi Calm Calm - N/A   Unknown
3:00 AM 71.6 °F - 66.2 °F 83% 29.65 in 6.2 mi Calm Calm - N/A   Unknown
3:30 AM 69.8 °F - 66.2 °F 88% 29.65 in 6.2 mi Calm Calm - N/A   Unknown
4:00 AM 69.8 °F - 68.0 °F 94% 29.62 in 6.2 mi Calm Calm - N/A   Unknown
4:30 AM 69.8 °F - 66.2 °F 88% 29.62 in 6.2 mi Calm Calm - N/A   Unknown
5:00 AM 68.0 °F - 66.2 °F 94% 29.62 in 5.0 mi Calm Calm - N/A   Unknown
5:11 AM 68.0 °F - 66.2 °F 94% 29.62 in 3.7 mi Calm Calm - N/A   Unknown
5:30 AM 68.0 °F - 68.0 °F 100% 29.62 in 1.2 mi Calm Calm - N/A   Unknown
6:04 AM 68.0 °F - 68.0 °F 100% 29.62 in 3.7 mi Calm Calm - N/A   Unknown
6:30 AM 68.0 °F - 68.0 °F 100% 29.65 in 6.2 mi Calm Calm - N/A   Unknown
6:32 AM 68.0 °F - 68.0 °F 100% 29.65 in 6.2 mi Calm Calm - N/A   Unknown
7:00 AM 71.6 °F - 69.8 °F 94% 29.62 in 6.2 mi Calm Calm - N/A   Unknown
7:30 AM 71.6 °F - 68.0 °F 88% 29.62 in 6.2 mi Calm Calm - N/A   Unknown
8:00 AM 75.2 °F - 69.8 °F 83% 29.62 in 6.2 mi Calm Calm - N/A   Unknown
8:30 AM 78.8 °F - 68.0 °F 69% 29.62 in 6.2 mi NE 1.2 mph - N/A   Unknown
9:00 AM 82.4 °F 86.3 °F 69.8 °F 66% 29.62 in 6.2 mi ENE 1.2 mph - N/A   Unknown
9:30 AM 87.8 °F 92.6 °F 69.8 °F 55% 29.59 in 6.2 mi NE 2.3 mph - N/A   Unknown
10:00 AM 93.2 °F 98.8 °F 69.8 °F 46% 29.59 in 6.2 mi ENE 2.3 mph - N/A   Unknown
10:30 AM 98.6 °F 104.1 °F 68.0 °F 37% 29.56 in 6.2 mi North 1.2 mph - N/A   Unknown
11:00 AM 104.0 °F 106.6 °F 62.6 °F 26% 29.56 in 6.2 mi NW 5.8 mph - N/A   Unknown
11:30 AM 107.6 °F 108.2 °F 59.0 °F 20% 29.53 in 6.2 mi NW 13.8 mph - N/A   Unknown
12:00 PM 111.2 °F 112.1 °F 59.0 °F 18% 29.53 in 6.2 mi NW 16.1 mph - N/A   Unknown
1:00 PM 111.2 °F 110.4 °F 55.4 °F 16% 29.50 in 6.2 mi West 15.0 mph - N/A   Unknown
2:01 PM 114.8 °F 113.5 °F 53.6 °F 14% 29.47 in 6.2 mi West 17.3 mph 31.1 mph N/A   Unknown
2:30 PM 114.8 °F 113.5 °F 55.4 °F 14% 29.47 in 6.2 mi WNW 18.4 mph - N/A   Unknown
2:56 PM 114.8 °F 113.5 °F 53.6 °F 14% 29.47 in 6.2 mi West 19.6 mph 31.1 mph N/A   Unknown
3:00 PM 114.8 °F 113.5 °F 53.6 °F 14% 29.44 in 6.2 mi West 16.1 mph - N/A   Unknown
3:30 PM 113.0 °F 112.0 °F 55.4 °F 15% 29.44 in 6.2 mi WNW 17.3 mph - N/A   Unknown
4:00 PM 111.2 °F - 51.8 °F 14% 29.44 in 6.2 mi West 16.1 mph - N/A   Unknown
4:30 PM 109.4 °F 109.4 °F 57.2 °F 18% 29.44 in 6.2 mi WNW 13.8 mph - N/A   Unknown
5:00 PM 109.4 °F 107.9 °F 53.6 °F 16% 29.44 in 6.2 mi West 17.3 mph - N/A   Unknown
5:30 PM 109.4 °F 107.9 °F 53.6 °F 16% 29.44 in 6.2 mi West 12.7 mph - N/A   Unknown
5:51 PM 104.0 °F 103.4 °F 57.2 °F 21% 29.47 in 6.2 mi West 23.0 mph 35.7 mph N/A Rain Light Rain
5:59 PM 105.8 °F 104.9 °F 55.4 °F 19% 29.47 in 6.2 mi West 20.7 mph 32.2 mph N/A Rain Light Rain Showers
6:01 PM 105.8 °F 104.9 °F 55.4 °F 19% 29.47 in 6.2 mi West 19.6 mph 31.1 mph N/A Rain Light Rain Showers
6:30 PM 104.0 °F 103.4 °F 57.2 °F 21% 29.47 in 6.2 mi West 4.6 mph - N/A   Mostly Cloudy
7:00 PM 98.6 °F 99.4 °F 60.8 °F 29% 29.50 in 6.2 mi NE 8.1 mph - N/A   Scattered Clouds
7:30 PM 96.8 °F 98.0 °F 62.6 °F 32% 29.50 in 6.2 mi NE 9.2 mph - N/A   Scattered Clouds
8:00 PM 95.0 °F 96.0 °F 62.6 °F 34% 29.50 in 6.2 mi NE 8.1 mph - N/A   Unknown
8:28 PM 91.4 °F 89.9 °F 57.2 °F 31% 29.53 in 6.2 mi SSE 27.6 mph - N/A   Unknown
8:33 PM 86.0 °F 84.9 °F 57.2 °F 37% 29.56 in 6.2 mi SSE 28.8 mph 40.3 mph N/A   Unknown
8:54 PM 80.6 °F 80.8 °F 57.2 °F 45% 29.62 in 6.2 mi SSE 21.9 mph - N/A   Unknown
9:00 PM 80.6 °F 80.8 °F 57.2 °F 45% 29.65 in 6.2 mi SSE 20.7 mph - N/A   Unknown
9:08 PM 80.6 °F 80.8 °F 57.2 °F 45% 29.65 in 6.2 mi South 18.4 mph 32.2 mph N/A   Unknown
9:30 PM 78.8 °F - 59.0 °F 51% 29.68 in 6.2 mi SSE 11.5 mph - N/A   Unknown
10:00 PM 77.0 °F - 57.2 °F 50% 29.74 in 6.2 mi South 12.7 mph - N/A   Unknown
10:30 PM 78.8 °F - 57.2 °F 47% 29.77 in 6.2 mi SE 9.2 mph - N/A   Unknown
11:00 PM 77.0 °F - 57.2 °F 50% 29.77 in 6.2 mi SSE 6.9 mph - N/A   Unknown
11:30 PM 77.0 °F - 57.2 °F 50% 29.80 in 6.2 mi South 10.4 mph - N/A   Unknown